Location: Kuffner-Sternwarte
(48.2130°N, 16.2960°E)
Time: 03:17:41
(UTC+01:00)

N. Korean satellite - Pass Details

Date: 21 February 2019
Orbit: 455 x 511 km, 97.2° (Epoch: 18 March)

Event Time Altitude Azimuth Distance (km) Brightness Sun altitude
Rises 05:08:55 0° 30° (NNE) 2,507 10.7 -17.8°
Reaches altitude 10° 05:11:45 10° 56° (NE) 1,616 10.1 -17.4°
Maximum altitude 05:13:42 14° 90° (E) 1,362 10.0 -17.1°
Drops below altitude 10° 05:15:39 10° 125° (SE) 1,599 9.9 -16.7°
Sets 05:18:25 0° 151° (SSE) 2,462 10.5 -16.3°
